Regional Weather Roundup
Issued by NWS

Home | Current Version | Previous Version | Text Only | Print | Product List | Glossary Off
Versions: 1 2 3 4 5 6 7 8 9 10 11 12 13 14 15 16 17 18 19 20 21 22 23 24 25 26 27 28 29 30 31 32 33 34 35 36 37 38 39 40 41 42 43 44 45 46 47 48 49 50

000
ASUS43 KLSX 301459
RWRMO

WEATHER SUMMARY FOR MISSOURI
NATIONAL WEATHER SERVICE SPRINGFIELD MO
1000 AM CDT THU MAR 30 2017

NOTE: "FAIR" INDICATES FEW OR NO CLOUDS BELOW 12,000 FEET WITH NO
       SIGNIFICANT WEATHER AND/OR OBSTRUCTIONS TO VISIBILITY.
       CURRENT SKY AND/OR WEATHER CONDITIONS ARE NOT AVAILABLE FOR
       CHILLICOTHE AND FARMINGTON.

MOZ001>031-035>038-043-044-053-054-301600-
...NORTHERN AND WESTERN MISSOURI...

CITY           SKY/WX    TMP DP  RH WIND       PRES   REMARKS
KANSAS CTY INT CLOUDY    51  47  86 NE3       29.57S
KANSAS C DTWN  LGT RAIN  49  47  93 S5        29.57S FOG
LEE`S SUMMIT   CLOUDY    48  46  93 S10       29.57S
ST JOSEPH      LGT RAIN  47  47 100 N15       29.60S
CHILLICOTHE      N/A     50  50 100 VRB5      29.58F
KIRKSVILLE     FOG       50  50 100 NE6       29.58R VSB 1/4

$$
MOZ066>068-077>081-088>096-101>105-301600-
...SOUTHWEST MISSOURI...

CITY           SKY/WX    TMP DP  RH WIND       PRES   REMARKS
SPRINGFIELD    CLOUDY    49  41  74 SW14      29.60F
JOPLIN         LGT RAIN  47  46  97 SW10G21   29.61S FOG
BRANSON        CLOUDY    48  39  71 SW10G21   29.64F

$$
MOZ032>034-039>042-045>050-055>058-069>072-301600-
...CENTRAL MISSOURI...

CITY           SKY/WX    TMP DP  RH WIND       PRES   REMARKS
COLUMBIA       CLOUDY    52  49  89 W13       29.58R
JEFFERSON CITY CLOUDY    54  47  77 W15       29.59R
ROLLA          RAIN      55  54  96 W14       29.56S FOG
SEDALIA        CLOUDY    51  44  77 SW13      29.59S
WARRENSBURG    CLOUDY    46  43  87 S7        29.58S
OSAGE BEACH    CLOUDY    50  43  77 SW8       29.60F

$$
MOZ051-052-059>065-301600-
...EAST CENTRAL MISSOURI...

CITY           SKY/WX    TMP DP  RH WIND       PRES   REMARKS
ST LOUIS INTL  CLOUDY    65  60  84 S6        29.56F
SPIRIT OF STL  CLOUDY    64  61  90 S6        29.54F
ST CHARLES     CLOUDY    64  62  93 S5        29.55F

$$
MOZ072>076-082>087-097>100-106>115-301600-
...SOUTH CENTRAL AND SOUTHEAST MISSOURI...

CITY           SKY/WX    TMP DP  RH WIND       PRES   REMARKS
CAPE GIRARDEAU PTSUNNY   65  59  81 S15G23    29.61F
FARMINGTON     CLOUDY    66  61  84 S12G21    29.57F
POPLAR BLUFF   CLOUDY    67  61  81 S24G30    29.60F
WEST PLAINS    LGT RAIN  54  50  86 W15G21    29.61R

$$




USA.gov is the U.S. government's official web portal to all federal, state and local government web resources and services.